GW6198 Weather Reports


time (UTC)temp
C
wind
direction
speed
KPH
gust
KPH
rain 1hr
cm
rain 24hr
cm
rain mn
cm
humidity
%
barometer
mb
20260506070820 20 211 0.0 3.2 0.00 0.00 0.00 44 1011.3
20260506070317 19 202 0.0 1.6 0.00 0.00 0.00 50 1011.4
20260506062254 19 19 1.6 3.2 0.00 0.00 0.00 47 1011.4
20260506061750 19 350 3.2 4.8 0.00 0.00 0.00 47 1011.6
20260506061247 20 341 1.6 4.8 0.00 0.00 0.00 47 1011.4
20260506060745 20 346 4.8 6.4 0.00 0.00 0.00 46 1011.4
20260506060243 20 354 4.8 6.4 0.00 0.00 0.00 46 1011.5
20260506051214 20 9 0.0 1.6 0.00 0.00 0.00 42 1011.2
20260506050713 20 37 0.0 3.2 0.00 0.00 0.00 43 1010.9
20260506050209 20 69 0.0 3.2 0.00 0.00 0.00 45 1011.3
20260506044700 21 116 0.0 1.6 0.00 0.00 0.00 40 1010.9
20260506044157 21 150 0.0 3.2 0.00 0.00 0.00 39 1011.2
20260506043654 21 166 4.8 6.4 0.00 0.00 0.00 38 1011.2
20260506043152 21 189 6.4 8.0 0.00 0.00 0.00 38 1011.3
20260506042651 21 197 3.2 4.8 0.00 0.00 0.00 43 1011.3
20260506042149 21 195 3.2 3.2 0.00 0.00 0.00 42 1011.1
20260506041652 21 138 1.6 3.2 0.00 0.00 0.00 42 1010.7
20260506041143 21 162 1.6 3.2 0.00 0.00 0.00 41 1010.6
20260506040641 21 177 3.2 4.8 0.00 0.00 0.00 41 1010.6
20260506040138 21 174 4.8 6.4 0.00 0.00 0.00 41 1010.4
20260506035635 21 180 4.8 6.4 0.00 0.00 0.00 40 1010.9
20260506035131 21 183 4.8 6.4 0.00 0.00 0.00 40 1010.4
20260506034628 22 176 4.8 6.4 0.00 0.00 0.00 39 1010.6
20260506034125 22 170 8.0 9.7 0.00 0.00 0.00 38 1010.4
20260506033623 22 170 9.7 12.9 0.00 0.00 0.00 38 1010.3
20260506033120 22 163 9.7 11.3 0.00 0.00 0.00 38 1010.4
20260506032617 22 168 9.7 9.7 0.00 0.00 0.00 38 1010.4
20260506032114 22 168 6.4 6.4 0.00 0.00 0.00 39 1010.3
20260506031611 22 163 3.2 4.8 0.00 0.00 0.00 39 1010.2
20260506031108 22 160 6.4 6.4 0.00 0.00 0.00 39 1010.0
20260506030606 22 153 4.8 9.7 0.00 0.00 0.00 39 1010.0
20260506030103 22 144 3.2 4.8 0.00 0.00 0.00 39 1009.9
20260506025600 22 162 4.8 6.4 0.00 0.00 0.00 38 1009.9
20260506025056 22 166 4.8 4.8 0.00 0.00 0.00 37 1010.0
20260506024553 23 166 3.2 4.8 0.00 0.00 0.00 35 1009.9
20260506024050 23 186 3.2 4.8 0.00 0.00 0.00 36 1009.9
20260506023545 23 170 3.2 3.2 0.00 0.00 0.00 33 1009.9
20260506023043 23 236 1.6 3.2 0.00 0.00 0.00 32 1009.8
20260506022541 23 269 0.0 1.6 0.00 0.00 0.00 32 1009.6
20260506022038 24 216 1.6 3.2 0.00 0.00 0.00 33 1009.7
20260506021535 24 246 3.2 3.2 0.00 0.00 0.00 31 1009.6
20260506021033 24 276 1.6 3.2 0.00 0.00 0.00 30 1009.4
20260506020530 24 333 3.2 4.8 0.00 0.00 0.00 30 1009.6
20260506020027 25 336 3.2 4.8 0.00 0.00 0.00 31 1009.6
20260506015525 25 290 3.2 4.8 0.00 0.00 0.00 30 1009.6
20260506015021 25 254 6.4 6.4 0.00 0.00 0.00 29 1009.7
20260506014519 25 211 3.2 3.2 0.00 0.00 0.00 30 1009.6
20260506014015 25 255 3.2 3.2 0.00 0.00 0.00 29 1009.7
20260506013513 25 254 3.2 3.2 0.00 0.00 0.00 29 1009.7
20260506013009 25 275 1.6 4.8 0.00 0.00 0.00 29 1009.7
20260506012505 25 296 6.4 9.7 0.00 0.00 0.00 28 1009.4
20260506012003 26 323 4.8 6.4 0.00 0.00 0.00 28 1009.4
20260506011500 26 294 6.4 16.1 0.00 0.00 0.00 28 1009.4
20260506010956 26 286 4.8 14.5 0.00 0.00 0.00 28 1009.3
20260506010456 26 298 12.9 17.7 0.00 0.00 0.00 27 1009.4
20260506005951 26 290 8.0 22.5 0.00 0.00 0.00 27 1009.3
20260506005449 26 297 11.3 19.3 0.00 0.00 0.00 27 1009.1
20260506004944 26 307 19.3 20.9 0.00 0.00 0.00 27 1009.3
20260506004442 26 295 9.7 25.7 0.00 0.00 0.00 26 1009.4
20260506003938 26 290 14.5 25.7 0.00 0.00 0.00 26 1009.6
20260506003435 26 288 11.3 24.1 0.00 0.00 0.00 26 1009.6
20260506002931 26 300 9.7 24.1 0.00 0.00 0.00 26 1009.7
20260506002427 26 301 11.3 24.1 0.00 0.00 0.00 26 1009.7
20260506001923 26 301 19.3 29.0 0.00 0.00 0.00 26 1009.8
20260506001420 27 289 27.4 27.4 0.00 0.00 0.00 25 1009.7
20260506000917 27 273 16.1 25.7 0.00 0.00 0.00 25 1009.8
20260506000416 27 286 11.3 33.8 0.00 0.00 0.00 25 1009.9
20260505235911 27 273 16.1 25.7 0.00 0.00 0.00 24 1009.9
20260505235409 27 287 17.7 30.6 0.00 0.00 0.00 24 1009.9
20260505234906 27 286 20.9 30.6 0.00 0.00 0.00 24 1009.8
20260505234404 27 279 22.5 32.2 0.00 0.00 0.00 24 1009.8
20260505233900 27 259 19.3 30.6 0.00 0.00 0.00 24 1009.9
20260505233358 27 273 19.3 30.6 0.00 0.00 0.00 25 1009.8
20260505232855 27 245 17.7 25.7 0.00 0.00 0.00 25 1009.7
20260505232353 27 272 20.9 29.0 0.00 0.00 0.00 24 1009.8
20260505231849 27 291 22.5 27.4 0.00 0.00 0.00 24 1009.6
20260505231347 27 278 24.1 33.8 0.00 0.00 0.00 24 1009.7
20260505230845 27 285 19.3 38.6 0.00 0.00 0.00 24 1009.6
20260505230342 28 267 25.7 33.8 0.00 0.00 0.00 24 1009.8
20260505225839 28 291 27.4 33.8 0.00 0.00 0.00 23 1009.6
20260505225336 28 271 17.7 27.4 0.00 0.00 0.00 23 1009.6
20260505224837 28 286 20.9 29.0 0.00 0.00 0.00 23 1009.4
20260505224335 28 278 12.9 35.4 0.00 0.00 0.00 23 1009.4
20260505223832 28 279 16.1 35.4 0.00 0.00 0.00 23 1009.8
20260505223329 28 288 20.9 33.8 0.00 0.00 0.00 22 1009.4
20260505222824 28 260 29.0 41.8 0.00 0.00 0.00 22 1009.7
20260505222321 28 294 22.5 33.8 0.00 0.00 0.00 22 1009.6
20260505221818 28 281 24.1 38.6 0.00 0.00 0.00 21 1010.2
20260505221314 28 272 29.0 35.4 0.00 0.00 0.00 21 1009.7
20260505220812 28 272 12.9 32.2 0.00 0.00 0.00 22 1009.6
20260505220309 28 263 33.8 35.4 0.00 0.00 0.00 22 1009.4
20260505215807 28 275 29.0 32.2 0.00 0.00 0.00 22 1009.8
20260505215305 28 256 19.3 38.6 0.00 0.00 0.00 21 1009.8
20260505214802 29 273 24.1 33.8 0.00 0.00 0.00 21 1009.7
20260505214259 29 271 17.7 20.9 0.00 0.00 0.00 21 1009.4
20260505213756 28 264 11.3 14.5 0.00 0.00 0.00 21 1009.4
20260505213254 28 293 12.9 17.7 0.00 0.00 0.00 20 1009.4
20260505212749 28 283 16.1 29.0 0.00 0.00 0.00 20 1009.9
20260505212247 28 261 19.3 35.4 0.00 0.00 0.00 20 1009.9
20260505211744 29 263 16.1 30.6 0.00 0.00 0.00 20 1009.9
20260505211241 29 259 20.9 27.4 0.00 0.00 0.00 19 1010.0
20260505210737 29 264 12.9 35.4 0.00 0.00 0.00 20 1010.2
20260505210234 29 280 24.1 30.6 0.00 0.00 0.00 20 1009.8
20260505205732 29 261 22.5 22.5 0.00 0.00 0.00 19 1009.8
20260505205230 29 242 19.3 27.4 0.00 0.00 0.00 19 1009.8
20260505204726 30 281 8.0 32.2 0.00 0.00 0.00 19 1010.0
20260505204224 30 268 20.9 30.6 0.00 0.00 0.00 20 1010.1
20260505203721 29 260 16.1 25.7 0.00 0.00 0.00 20 1010.0
20260505203218 29 279 19.3 30.6 0.00 0.00 0.00 20 1010.1
20260505202713 30 280 19.3 32.2 0.00 0.00 0.00 20 1010.2
20260505202210 30 257 24.1 32.2 0.00 0.00 0.00 20 1010.4
20260505201706 29 295 24.1 29.0 0.00 0.00 0.00 21 1010.4
20260505201204 30 284 11.3 25.7 0.00 0.00 0.00 21 1010.4
20260505200702 30 247 14.5 17.7 0.00 0.00 0.00 21 1009.8
20260505200159 28 271 8.0 20.9 0.00 0.00 0.00 22 1010.1
20260505195654 28 260 19.3 24.1 0.00 0.00 0.00 22 1010.4
20260505195152 29 276 19.3 24.1 0.00 0.00 0.00 22 1010.5
20260505194649 29 271 8.0 20.9 0.00 0.00 0.00 22 1010.4
20260505194145 28 236 11.3 25.7 0.00 0.00 0.00 22 1010.5
20260505193642 29 264 16.1 32.2 0.00 0.00 0.00 21 1010.2
20260505193139 30 284 16.1 27.4 0.00 0.00 0.00 22 1010.3
20260505192638 29 290 9.7 25.7 0.00 0.00 0.00 22 1010.4
20260505192135 29 296 24.1 29.0 0.00 0.00 0.00 21 1010.4
20260505191633 29 276 19.3 30.6 0.00 0.00 0.00 22 1010.5
20260505191131 29 290 19.3 35.4 0.00 0.00 0.00 21 1010.5
20260505190626 30 289 8.0 32.2 0.00 0.00 0.00 21 1010.6
20260505190121 30 289 24.1 33.8 0.00 0.00 0.00 21 1010.5
20260505185619 30 314 20.9 33.8 0.00 0.00 0.00 21 1010.9
20260505185115 29 301 20.9 25.7 0.00 0.00 0.00 21 1010.5
20260505184611 29 296 17.7 30.6 0.00 0.00 0.00 22 1010.4
20260505184108 30 299 35.4 38.6 0.00 0.00 0.00 21 1010.6
20260505183605 30 309 24.1 30.6 0.00 0.00 0.00 22 1010.9
20260505183103 29 290 20.9 33.8 0.00 0.00 0.00 22 1010.9
20260505182558 30 311 27.4 45.1 0.00 0.00 0.00 22 1010.9
20260505182055 30 296 35.4 35.4 0.00 0.00 0.00 22 1010.7
20260505181552 29 284 17.7 30.6 0.00 0.00 0.00 23 1010.7
20260505181049 30 256 17.7 27.4 0.00 0.00 0.00 23 1010.6
20260505180545 29 289 14.5 29.0 0.00 0.00 0.00 23 1010.9
20260505180044 29 276 16.1 27.4 0.00 0.00 0.00 23 1010.9
20260505175543 29 278 29.0 32.2 0.00 0.00 0.00 21 1010.7
20260505175041 29 302 22.5 30.6 0.00 0.00 0.00 22 1011.0
20260505174537 29 303 22.5 33.8 0.00 0.00 0.00 22 1011.0
20260505174033 29 283 25.7 38.6 0.00 0.00 0.00 22 1011.0
20260505173530 29 298 25.7 37.0 0.00 0.00 0.00 22 1011.0
20260505173027 29 303 29.0 32.2 0.00 0.00 0.00 23 1011.0
20260505172525 28 315 27.4 37.0 0.00 0.00 0.00 23 1011.0
20260505172021 28 291 20.9 38.6 0.00 0.00 0.00 23 1011.0
20260505171516 29 299 24.1 32.2 0.00 0.00 0.00 23 1011.2
20260505171014 28 331 16.1 32.2 0.00 0.00 0.00 23 1010.9
20260505170510 28 296 24.1 43.5 0.00 0.00 0.00 23 1011.0
20260505170006 28 305 20.9 32.2 0.00 0.00 0.00 23 1011.1
20260505165502 28 294 16.1 25.7 0.00 0.00 0.00 23 1011.0
20260505164958 28 283 12.9 29.0 0.00 0.00 0.00 24 1011.1
20260505164454 28 279 12.9 29.0 0.00 0.00 0.00 24 1011.3
20260505163952 28 244 22.5 27.4 0.00 0.00 0.00 24 1011.2
20260505163450 28 246 19.3 30.6 0.00 0.00 0.00 24 1011.1
20260505162949 28 251 22.5 22.5 0.00 0.00 0.00 25 1011.2
20260505162445 28 255 17.7 19.3 0.00 0.00 0.00 26 1011.3
20260505161942 28 290 20.9 30.6 0.00 0.00 0.00 25 1011.2
20260505161438 27 287 6.4 20.9 0.00 0.00 0.00 26 1011.0
20260505160936 27 285 14.5 19.3 0.00 0.00 0.00 26 1011.2
20260505160434 27 275 11.3 24.1 0.00 0.00 0.00 26 1011.2
20260505152910 25 264 6.4 16.1 0.00 0.00 0.00 41 1010.7
20260505152408 25 267 6.4 16.1 0.00 0.00 0.00 42 1010.9
20260505151907 24 241 17.7 20.9 0.00 0.00 0.00 44 1010.6
20260505151404 24 241 11.3 17.7 0.00 0.00 0.00 45 1010.7
20260505150901 23 268 9.7 12.9 0.00 0.00 0.00 47 1010.6
20260505150359 23 254 9.7 17.7 0.00 0.00 0.00 47 1010.6
20260505140328 21 227 9.7 14.5 0.00 0.00 0.00 68 1010.2
20260505130252 17 241 11.3 11.3 0.00 0.00 0.00 86 1010.0
20260505124742 16 228 6.4 9.7 0.00 0.00 0.00 87 1009.6
20260505124239 16 235 6.4 9.7 0.00 0.00 0.00 87 1009.6
20260505123734 16 236 4.8 9.7 0.00 0.00 0.00 87 1009.3
20260505123232 16 233 8.0 8.0 0.00 0.00 0.00 87 1009.3
20260505122728 16 217 6.4 11.3 0.00 0.00 0.00 88 1009.4
20260505122225 16 213 4.8 9.7 0.00 0.00 0.00 88 1009.2
20260505121722 16 225 3.2 6.4 0.00 0.00 0.00 88 1009.3
20260505121219 16 219 3.2 4.8 0.00 0.00 0.00 88 1009.3
20260505120715 16 214 4.8 6.4 0.00 0.00 0.00 88 1009.4
20260505120211 16 208 3.2 4.8 0.00 0.00 0.00 88 1009.1
20260505115704 15 209 1.6 3.2 0.00 0.00 0.00 88 1009.1
20260505115203 16 214 3.2 4.8 0.00 0.00 0.00 88 1009.1
20260505114659 16 182 3.2 4.8 0.00 0.00 0.00 87 1009.1
20260505114155 16 176 3.2 3.2 0.00 0.00 0.00 87 1009.0
20260505113652 16 177 0.0 1.6 0.00 0.00 0.00 86 1009.1
20260505113149 16 172 1.6 3.2 0.00 0.00 0.00 86 1009.1
20260505112645 16 136 0.0 4.8 0.00 0.00 0.00 86 1009.0
20260505112143 16 177 1.6 3.2 0.00 0.00 0.00 86 1009.1
20260505111642 16 253 3.2 3.2 0.00 0.00 0.00 85 1009.2
20260505111139 16 226 3.2 3.2 0.00 0.00 0.00 85 1009.0
20260505110635 16 248 4.8 4.8 0.00 0.00 0.00 85 1009.1
20260505110132 16 269 1.6 3.2 0.00 0.00 0.00 84 1009.0
20260505102108 18 222 8.0 9.7 0.00 0.00 0.00 80 1009.0
20260505101606 18 239 6.4 9.7 0.00 0.00 0.00 79 1008.9
20260505101102 18 233 9.7 9.7 0.00 0.00 0.00 79 1008.8
20260505100559 18 244 9.7 16.1 0.00 0.00 0.00 78 1008.7
20260505100056 18 230 9.7 12.9 0.00 0.00 0.00 78 1008.7
20260505095552 18 233 11.3 12.9 0.00 0.00 0.00 78 1008.6
20260505095049 18 237 8.0 9.7 0.00 0.00 0.00 78 1008.6
20260505094545 19 242 8.0 12.9 0.00 0.00 0.00 77 1008.9
20260505094041 19 241 9.7 12.9 0.00 0.00 0.00 77 1008.5
20260505093538 19 237 9.7 12.9 0.00 0.00 0.00 76 1008.6
20260505093036 19 220 11.3 14.5 0.00 0.00 0.00 76 1008.5
20260505092533 20 200 3.2 11.3 0.00 0.00 0.00 75 1008.6
20260505092031 20 225 8.0 17.7 0.00 0.00 0.00 75 1008.5
20260505091527 20 209 9.7 16.1 0.00 0.00 0.00 75 1008.6
20260505091026 20 236 8.0 19.3 0.00 0.00 0.00 75 1008.4
20260505090524 20 195 8.0 19.3 0.00 0.00 0.00 75 1008.6
20260505090021 20 217 6.4 17.7 0.00 0.00 0.00 74 1008.6
20260505085519 20 235 14.5 19.3 0.00 0.00 0.00 74 1008.7
20260505085017 20 233 14.5 16.1 0.00 0.00 0.00 74 1008.6
20260505084515 20 230 14.5 17.7 0.00 0.00 0.00 74 1008.5
20260505084012 20 218 11.3 17.7 0.00 0.00 0.00 73 1008.7
20260505083509 20 186 8.0 12.9 0.00 0.00 0.00 73 1008.7
20260505083006 20 229 9.7 20.9 0.00 0.00 0.00 72 1008.8
20260505082502 20 202 8.0 17.7 0.00 0.00 0.00 72 1008.7
20260505081959 20 206 8.0 19.3 0.00 0.00 0.00 72 1008.7
20260505081455 20 221 12.9 20.9 0.00 0.00 0.00 71 1008.7
20260505080952 20 216 11.3 19.3 0.00 0.00 0.00 71 1008.5
20260505080448 20 217 8.0 25.7 0.00 0.00 0.00 71 1008.5
20260505075944 20 222 9.7 11.3 0.00 0.00 0.00 70 1008.7
20260505075440 20 206 9.7 14.5 0.00 0.00 0.00 70 1008.6
20260505074938 20 209 8.0 19.3 0.00 0.00 0.00 70 1008.8
20260505074436 21 192 8.0 17.7 0.00 0.00 0.00 69 1008.7
20260505073932 21 184 16.1 24.1 0.00 0.00 0.00 69 1009.1
20260505073430 21 230 14.5 17.7 0.00 0.00 0.00 69 1009.1
20260505072927 21 232 11.3 19.3 0.00 0.00 0.00 68 1009.0
20260505072423 21 222 9.7 22.5 0.00 0.00 0.00 68 1009.0
20260505071919 21 224 9.7 14.5 0.00 0.00 0.00 68 1009.0
20260505071415 21 219 6.4 14.5 0.00 0.00 0.00 67 1009.1